Wind_Speed
32 33 39 45 45 44 43 40 39 37 33 28 23 21 21 23 29 31 29 26 22 22 23 21 21 21 22 27 29 31 32 32 33 30 27 25 23 22 21 20 21 15 7 12 17 18 20 20 21 23 23 23 24 25 25 25 24 23 23 22 21 21 21 21 20 19 17 16 15 13 11 10 10 11 11 11 11 11 12 12 13 12 12 13 12 11
32 38 45 46 44 41 39 38 36 36 36 35 30 27 25 27 32 32 29 27 22 21 24 22 20 20 21 26 30 32 34 35 35 32 28 24 21 21 22 22 22 15 9 15 19 20 22 23 23 24 25 26 26 26 27 26 25 24 23 23 22 22 22 21 19 18 16 14 12 11 9 9 10 10 10 9 9 10 12 13 13 13 13 13 13 12
35 44 46 40 39 39 37 36 35 35 35 36 35 33 32 33 34 32 31 28 24 24 25 23 23 22 20 24 31 34 36 36 35 35 31 26 22 19 19 21 23 19 15 17 19 20 23 25 25 26 26 27 26 26 26 25 25 25 25 24 24 24 22 21 20 18 15 13 12 11 10 10 10 11 11 11 12 13 13 14 14 14 14 14 13 12
37 41 42 38 35 37 38 36 34 34 34 36 36 35 37 37 32 30 30 24 16 14 17 17 20 21 18 20 27 32 36 38 37 37 34 30 25 18 14 16 22 24 19 15 17 21 23 26 27 27 28 27 27 27 27 27 26 26 25 24 24 23 22 21 20 18 16 15 14 13 13 13 14 14 14 16 16 17 17 17 17 16 15 15 14 13
40 34 33 36 37 35 37 38 36 35 36 38 39 39 40 37 32 31 29 26 20 16 17 18 20 23 23 22 24 27 33 39 40 40 37 33 29 22 20 22 24 25 22 16 16 20 23 26 28 28 28 28 28 29 28 27 26 25 24 23 23 22 21 20 19 19 19 18 17 17 17 17 17 17 15 14 13 15 17 18 17 16 16 16 15 14
42 34 25 26 34 37 37 38 39 39 39 40 43 45 41 36 32 30 27 26 26 25 26 22 16 18 24 23 20 21 29 35 38 40 40 37 32 27 26 26 27 28 25 19 16 18 22 25 27 28 28 28 29 29 28 27 25 23 23 23 23 23 22 21 20 20 20 20 19 19 19 18 16 13 9 6 5 8 10 13 15 16 16 16 15 15
42 40 31 23 25 33 38 41 42 40 39 42 46 45 40 36 35 33 30 25 22 25 27 21 12 13 21 24 20 19 22 27 32 38 39 38 35 30 27 25 26 29 28 22 17 18 21 24 26 28 28 28 28 27 27 26 25 24 25 25 25 24 23 22 22 22 22 21 21 20 20 18 16 12 8 5 5 6 8 11 15 16 16 16 15 15
40 39 38 34 28 28 35 42 44 41 40 44 46 41 38 36 34 32 27 23 23 26 28 27 22 20 27 33 29 24 22 24 29 35 37 40 38 33 30 26 26 28 29 26 21 18 18 21 24 27 27 26 26 26 26 26 26 25 26 26 26 26 25 24 24 23 22 22 21 21 20 19 17 14 12 11 10 10 10 12 15 16 17 16 16 15
39 37 38 40 38 34 36 40 40 42 43 43 41 36 36 35 32 29 22 21 23 22 28 35 27 17 23 35 34 29 28 27 29 31 34 40 40 36 32 28 26 26 29 29 25 20 17 17 19 23 25 25 23 25 27 27 26 25 25 26 26 26 26 26 26 25 24 23 22 22 22 21 18 16 15 16 15 14 14 14 16 17 17 17 16 15
35 34 32 34 40 40 38 36 36 40 44 43 39 34 31 30 29 26 22 22 21 17 26 37 29 14 17 30 31 27 30 31 29 27 29 36 40 38 34 30 27 26 28 30 29 25 19 15 14 16 20 22 23 24 25 26 27 27 27 27 27 27 26 26 26 26 25 24 24 24 23 22 20 18 18 18 18 18 17 17 19 19 19 18 17 15
35 31 28 29 33 34 33 34 34 35 37 38 39 37 33 31 30 27 26 24 18 15 26 36 32 18 14 25 32 32 33 32 29 27 28 34 40 40 36 33 29 27 28 30 30 29 25 19 16 16 18 19 22 24 25 26 28 29 29 29 29 28 27 27 27 26 26 25 25 24 23 22 21 20 20 20 19 19 18 18 19 20 20 19 19 17
37 32 29 28 27 25 26 31 33 30 30 29 32 34 30 27 26 26 26 22 13 11 18 26 28 22 18 23 31 35 36 31 29 29 28 30 35 39 39 35 31 29 28 29 30 31 29 25 23 23 21 19 21 24 27 28 28 29 30 30 30 30 30 29 28 28 27 27 26 25 24 23 22 22 22 20 19 19 19 17 17 19 20 21 21 19
38 38 35 30 28 25 23 26 30 31 31 27 27 28 21 11 10 12 11 10 11 10 10 14 16 21 29 33 32 36 37 33 31 29 26 27 29 34 38 36 33 30 29 30 30 31 31 30 27 26 24 22 22 24 26 28 29 30 30 30 31 31 31 31 31 30 29 29 28 26 25 24 23 24 23 21 20 20 20 18 17 17 19 21 21 19
30 34 38 35 32 31 28 28 29 31 33 32 31 30 22 8 3 6 5 3 9 10 10 15 14 18 31 35 34 36 37 35 35 31 26 25 26 28 32 33 34 33 31 30 30 30 31 31 29 28 26 26 25 24 24 26 28 30 31 32 33 32 32 33 33 32 31 31 30 28 27 25 25 25 24 22 21 21 20 19 18 17 18 20 21 19
25 22 33 40 38 35 33 32 29 25 27 31 34 31 27 19 11 6 4 3 3 3 8 14 13 14 21 25 29 31 31 32 33 32 28 26 26 26 27 28 32 34 34 32 31 30 30 30 30 29 27 28 27 26 25 25 26 28 30 32 33 33 33 34 34 34 34 33 31 30 29 28 27 26 25 24 23 22 21 20 19 17 17 19 20 20
30 28 30 31 34 36 34 32 29 23 22 25 29 31 34 38 26 8 4 7 5 3 4 13 15 20 23 24 25 24 26 29 28 28 28 27 26 25 26 28 29 30 33 34 34 31 30 30 31 31 29 28 28 28 27 27 26 27 27 28 29 30 31 33 34 35 35 34 34 32 31 30 29 28 27 27 25 23 22 21 20 18 17 19 21 21
27 32 32 24 25 33 33 32 30 27 25 21 27 38 41 40 32 17 11 14 11 6 6 10 16 24 25 26 28 24 24 29 29 28 28 28 27 25 25 27 26 25 27 30 32 32 30 30 31 31 30 30 30 29 29 27 26 26 26 25 25 25 27 29 31 32 33 34 35 34 33 32 31 30 29 28 26 25 23 22 20 19 18 19 21 23
23 26 31 26 25 27 28 31 31 31 29 23 27 39 36 26 26 23 13 9 8 5 5 10 16 20 19 18 21 23 25 28 31 31 28 26 26 26 24 24 24 22 21 23 27 30 31 31 31 31 31 30 30 29 28 27 25 25 25 25 24 23 23 22 24 26 29 31 33 34 34 33 32 31 30 29 27 27 25 24 21 20 20 20 21 23
26 22 23 26 26 23 23 27 29 30 33 31 30 31 25 16 19 23 15 5 4 4 4 9 15 21 27 23 15 16 19 23 28 32 32 29 27 26 24 22 21 20 20 23 26 29 31 32 32 32 31 31 30 29 28 27 26 26 25 24 24 23 22 19 19 21 23 26 29 31 32 32 32 32 31 30 29 29 28 25 22 21 20 21 22 24
25 20 20 25 25 21 22 29 32 33 34 35 34 32 27 22 20 25 23 11 5 4 3 6 8 18 32 34 25 19 18 16 18 24 29 31 30 29 26 22 21 21 22 24 24 26 28 29 30 31 31 31 30 29 29 28 28 27 25 24 23 23 23 22 21 21 20 22 24 26 29 31 32 32 32 31 31 31 30 27 24 22 21 22 23 25
31 24 23 24 23 22 27 31 32 34 36 38 39 36 33 28 20 19 25 25 17 7 3 2 6 13 21 23 22 22 21 19 18 19 23 25 27 30 29 26 22 21 23 23 23 24 25 27 29 29 30 31 30 30 30 30 30 28 26 25 24 23 23 24 24 23 22 22 22 23 25 28 30 32 32 33 32 32 31 29 26 24 23 23 25 26
36 29 25 23 22 26 29 27 26 28 33 38 42 42 39 34 25 12 12 25 30 20 9 5 7 18 22 17 14 15 17 20 21 21 21 21 22 25 29 29 26 24 24 23 21 21 22 25 27 27 27 30 32 32 32 32 31 29 28 27 25 24 23 24 24 24 24 23 23 23 23 24 25 27 29 31 32 32 31 30 27 25 25 25 26 27
33 28 28 29 27 26 24 23 25 26 28 33 39 43 42 39 35 22 12 19 28 26 21 11 10 26 35 27 19 16 15 16 18 22 24 23 22 22 24 26 27 27 26 23 20 21 23 23 24 26 26 28 32 33 32 33 32 30 29 27 26 25 24 24 24 24 24 24 23 23 22 23 24 25 26 28 29 30 30 29 28 26 26 26 27 28
24 22 27 30 29 28 26 24 25 26 29 35 40 43 45 44 42 37 31 27 23 23 23 12 8 23 32 27 22 20 17 15 15 18 22 24 25 24 24 23 23 24 26 26 24 24 25 25 24 26 27 27 30 32 32 32 32 31 29 28 28 26 24 25 24 25 26 25 24 23 23 24 24 24 25 26 28 29 29 29 29 27 27 27 28 29
12 14 17 17 15 18 23 23 25 29 32 36 40 42 44 47 44 41 41 35 24 24 27 17 11 22 30 27 24 22 20 19 17 16 19 21 23 25 26 24 21 21 22 25 26 25 27 28 24 25 27 27 30 32 31 31 31 31 30 29 28 26 25 25 25 26 27 26 25 25 24 26 25 25 25 26 27 28 28 29 29 28 28 28 29 30
7 9 10 9 8 8 10 10 15 24 30 33 36 39 41 44 44 43 41 33 24 25 31 27 20 24 30 30 26 23 22 21 19 17 19 19 20 23 26 25 23 22 20 20 22 23 26 27 24 24 27 28 30 31 29 29 30 30 30 29 28 27 25 25 25 27 28 27 27 27 27 27 27 26 26 25 26 27 28 29 29 28 29 30 30 31
7 8 6 7 10 9 9 9 10 15 22 24 27 33 39 41 43 45 43 37 32 27 32 39 35 28 27 28 26 23 21 21 19 17 18 18 17 19 22 23 25 25 22 20 21 22 22 24 23 24 27 28 29 30 29 29 29 29 29 29 29 28 26 25 25 26 27 28 29 29 29 30 29 28 27 25 25 26 27 29 29 29 30 31 32 32
8 7 6 8 11 11 13 15 15 15 18 18 21 29 36 37 41 47 47 46 41 30 30 44 46 38 34 31 28 26 23 22 20 16 16 18 19 20 21 22 24 26 25 22 22 22 22 22 22 23 27 28 27 28 29 29 30 30 30 29 29 28 26 26 26 27 28 28 30 31 31 31 31 30 28 26 25 25 26 28 29 30 31 32 33 34
10 8 7 10 14 14 13 14 17 21 22 21 22 27 33 37 42 49 50 49 47 39 38 46 46 42 41 36 31 29 24 21 20 15 13 16 19 21 23 23 23 26 27 25 23 24 23 21 22 23 26 28 27 27 28 28 29 30 30 30 29 28 26 25 26 27 27 29 31 32 32 32 32 32 31 29 27 25 25 27 29 31 32 32 33 35
11 9 8 12 16 17 14 11 14 20 24 27 28 28 30 35 41 47 48 47 48 47 48 49 44 41 43 40 36 35 33 31 31 28 25 23 23 24 24 24 22 23 25 25 24 25 24 21 21 23 25 27 27 25 25 26 27 28 28 28 28 27 26 26 27 28 29 30 31 31 30 32 33 34 34 32 30 27 26 26 29 31 33 33 34 35
13 11 11 15 20 18 14 12 13 18 23 28 33 33 34 35 37 41 44 45 46 47 47 48 47 45 45 43 42 43 42 42 42 40 36 32 31 29 24 20 19 20 21 20 21 24 24 22 22 24 24 26 26 25 25 25 25 25 26 27 28 27 26 27 28 29 30 31 30 28 28 32 34 36 37 36 33 30 28 27 28 30 33 34 34 35
17 16 16 17 19 18 13 11 15 21 24 29 37 39 38 37 37 37 38 41 45 47 46 47 50 50 46 45 46 46 45 45 44 41 36 31 31 32 27 19 17 19 19 17 19 23 24 23 24 26 26 25 25 26 26 26 25 26 27 27 27 27 27 28 28 28 30 30 28 26 28 31 34 36 38 39 36 34 31 29 29 30 32 34 35 35
18 18 17 15 16 16 11 10 15 16 16 25 34 34 34 39 41 39 39 39 40 45 48 52 52 48 43 42 44 45 45 44 43 41 38 32 29 31 30 24 20 20 20 18 18 20 22 21 22 25 28 27 25 26 26 27 28 28 28 28 26 26 27 28 28 27 28 28 28 28 29 31 34 37 39 40 39 37 34 32 31 31 32 34 35 35
19 18 18 15 14 13 11 12 14 11 11 18 19 17 27 38 39 39 43 43 40 40 46 50 49 44 40 38 39 42 42 41 40 41 41 37 31 31 33 32 28 24 21 18 17 19 23 24 22 23 27 28 27 26 25 26 27 27 28 29 29 28 29 29 28 27 27 28 29 29 29 31 34 37 39 40 40 40 38 36 34 32 32 33 35 37
18 17 17 17 15 14 16 14 8 7 15 16 11 15 27 30 27 31 39 44 44 42 41 41 41 40 40 37 35 36 37 39 40 41 42 40 34 30 33 36 35 30 26 22 20 19 24 29 28 25 26 27 27 27 25 24 25 25 26 29 30 30 30 31 30 28 28 28 29 30 30 32 35 37 38 40 41 42 41 39 37 35 34 34 36 38
18 15 16 19 17 12 12 9 6 11 18 14 11 19 24 24 25 29 35 41 43 43 42 40 35 32 33 33 33 31 32 36 38 38 39 39 34 30 30 33 35 35 32 28 24 21 23 29 32 29 27 27 27 26 25 24 25 26 27 29 30 30 31 33 32 30 29 30 30 31 31 33 34 35 37 39 41 43 44 43 40 38 36 36 37 38
22 18 17 19 18 13 13 15 16 20 19 14 14 15 14 19 27 29 34 40 38 36 42 44 38 33 30 30 30 30 31 34 36 36 36 36 34 30 29 29 31 33 35 33 29 23 21 25 30 30 29 30 28 27 25 23 23 25 28 29 30 30 31 33 33 31 31 32 31 29 29 30 32 33 34 37 40 43 44 45 43 41 39 39 39 40
24 23 20 20 20 18 16 15 12 10 8 9 11 8 7 14 23 27 32 39 37 33 37 41 40 38 34 30 30 31 32 34 36 36 34 34 33 30 27 25 24 26 31 34 32 26 21 21 25 28 29 31 29 26 25 26 26 27 28 28 29 29 30 33 36 35 33 30 27 24 24 25 25 26 28 31 35 39 41 44 45 43 41 41 41 41
28 27 25 24 24 23 19 13 8 7 9 9 8 6 5 9 19 24 24 31 38 37 34 36 37 37 37 35 34 34 35 36 36 34 33 33 32 28 25 24 22 20 23 29 30 26 22 22 23 23 25 27 26 24 24 25 28 31 31 29 28 29 31 35 38 36 30 25 22 21 22 22 21 22 25 27 29 33 37 40 43 45 44 43 42 43
33 34 31 29 30 30 27 19 14 16 18 16 14 13 11 12 16 17 12 21 35 37 33 33 32 32 34 35 34 36 37 36 33 32 33 33 31 27 24 23 23 21 20 23 25 24 25 25 24 22 21 22 23 24 24 25 27 30 32 32 31 31 33 36 36 31 26 22 21 21 23 23 22 22 25 26 27 29 33 36 40 44 46 46 45 44
30 36 34 32 32 33 30 24 21 23 23 21 21 19 15 12 12 17 17 23 29 29 31 33 30 27 29 31 32 34 34 32 30 31 32 32 31 29 25 22 22 22 21 21 23 25 27 28 26 24 22 21 23 25 26 26 26 26 29 32 33 33 32 32 30 27 25 24 23 23 23 24 25 25 24 24 24 26 28 33 37 41 46 48 48 47
20 29 32 32 32 32 33 29 24 24 25 24 24 22 17 11 12 21 26 27 25 24 27 30 29 27 26 27 28 29 29 29 29 30 31 31 30 28 26 23 22 22 23 23 24 27 28 29 28 26 24 23 24 25 26 26 26 25 26 28 29 29 29 29 28 27 26 25 25 26 26 26 28 28 26 24 25 24 23 26 31 36 42 47 49 49
15 18 24 31 32 29 29 25 16 17 23 23 20 19 16 12 15 22 24 23 23 24 26 28 29 29 28 28 28 28 28 27 27 29 30 29 28 27 26 24 23 23 24 25 27 29 30 30 30 29 28 27 27 27 27 27 27 28 27 27 27 28 31 31 31 30 30 30 30 30 29 29 29 30 29 28 27 25 22 22 26 30 35 42 48 51
17 16 18 26 31 28 27 26 20 19 24 22 16 14 14 13 15 20 21 21 21 23 25 26 26 27 29 31 31 30 30 28 27 29 29 28 28 28 26 25 25 25 25 25 27 29 29 30 30 31 30 30 30 31 30 29 29 30 30 29 29 32 35 36 36 36 36 36 35 34 33 33 32 32 32 32 31 30 27 26 28 30 32 36 42 48
16 18 18 23 30 29 28 33 33 28 26 26 20 16 15 13 13 16 19 19 20 22 23 23 25 26 28 30 30 30 30 29 28 28 27 27 26 25 25 25 25 25 25 24 23 23 23 24 25 26 27 28 29 30 30 30 30 31 31 31 31 33 35 36 37 38 38 37 38 37 37 36 37 37 37 37 38 37 33 31 33 34 34 34 36 40
16 19 19 23 28 26 23 31 37 35 34 34 26 16 12 10 9 12 17 18 19 22 22 22 24 26 26 27 26 25 26 27 27 28 27 26 25 24 23 23 23 23 24 23 22 21 20 20 20 20 21 22 23 25 26 26 28 30 31 32 32 33 33 34 35 36 36 37 38 38 39 39 40 41 41 42 42 42 40 38 38 38 38 38 38 39
20 22 23 24 25 22 20 29 38 41 43 44 36 24 16 9 4 8 13 13 15 21 24 23 24 26 27 28 25 22 22 23 23 26 28 27 26 25 24 22 21 21 21 21 21 20 20 20 20 19 19 20 20 21 22 23 25 26 28 30 32 33 34 34 34 34 34 35 36 37 38 39 40 41 43 44 45 45 45 45 44 43 42 42 42 43
19 22 24 26 26 21 21 30 40 43 46 48 44 34 20 8 5 5 13 12 11 16 21 22 23 26 29 30 26 20 19 20 20 22 25 26 25 24 23 22 20 19 19 19 19 19 19 19 20 21 21 22 22 23 23 24 24 25 27 28 30 31 32 33 34 35 35 36 37 39 40 41 42 44 45 46 47 48 48 48 48 49 48 47 47 47
17 22 24 26 26 22 21 31 40 44 46 48 47 40 27 11 6 2 13 13 9 11 14 15 17 21 26 30 29 23 19 17 18 19 21 22 23 22 21 20 19 18 18 18 17 17 18 18 18 20 21 22 23 24 25 26 27 28 28 28 29 30 31 32 33 35 36 37 38 40 42 44 46 48 49 50 51 51 50 50 51 52 52 52 52 53
16 24 27 26 25 22 24 32 39 41 42 44 45 43 37 22 6 3 7 11 10 9 11 12 13 18 23 26 28 25 19 13 13 14 15 16 18 18 17 17 17 17 16 16 15 15 15 16 17 18 19 20 22 23 24 25 27 28 29 30 31 31 32 33 34 35 36 37 39 40 42 44 46 48 49 51 52 53 54 54 55 56 56 56 56 56
18 22 26 27 26 22 22 28 35 39 38 38 40 43 44 34 13 5 3 8 10 9 9 11 13 17 20 21 22 21 17 12 10 10 9 11 12 12 13 13 14 14 14 14 15 15 15 15 16 17 18 20 21 22 23 24 25 26 28 29 31 33 35 36 38 39 40 40 41 43 44 45 46 47 48 49 51 53 56 58 59 60 60 60 60 60
Wind_Direction
203 207 212 214 216 216 218 222 226 230 231 229 229 231 236 243 244 239 239 249 264 275 274 274 287 292 278 261 253 250 248 246 242 239 240 241 239 238 241 242 238 244 245 205 201 199 199 203 205 206 206 207 207 205 202 201 200 198 198 198 198 200 202 203 202 202 205 207 209 211 216 218 213 211 212 214 216 217 219 220 223 223 221 223 225 228
207 215 218 217 217 218 220 223 227 232 233 233 234 238 243 244 244 242 240 246 258 270 270 270 278 285 280 268 258 252 249 246 241 240 242 244 243 242 244 244 238 237 219 203 202 200 200 201 204 206 208 210 210 208 205 203 201 200 200 200 199 202 204 205 205 205 206 208 210 211 216 219 218 218 217 218 220 219 221 224 226 226 225 226 228 230
213 222 222 218 218 219 220 223 226 230 233 234 236 243 249 245 246 248 246 251 261 269 270 269 273 279 280 272 261 256 255 251 247 247 250 252 252 251 250 243 236 230 218 207 203 202 202 201 203 207 209 212 213 212 209 206 204 203 203 201 200 203 204 205 205 204 203 204 206 206 205 208 210 213 216 218 219 218 220 224 226 227 227 228 230 231
215 225 225 219 218 219 221 223 225 228 231 233 234 240 244 243 249 255 252 257 262 262 267 268 271 271 273 274 264 257 256 253 250 250 251 252 252 254 259 249 235 230 230 224 210 204 204 202 204 208 209 212 213 213 211 208 206 205 204 203 202 202 203 204 203 202 204 206 207 204 201 204 206 208 211 215 219 220 221 224 226 227 228 230 231 232
216 224 227 222 219 219 221 222 224 226 228 231 232 234 239 241 249 257 259 262 262 254 258 271 280 273 267 271 267 259 252 249 248 247 244 244 244 243 246 247 237 231 235 238 224 211 207 205 207 210 210 211 213 213 212 209 207 206 204 203 202 203 203 203 203 203 207 209 209 207 205 207 210 213 216 218 225 229 229 230 232 231 231 232 233 233
221 222 227 224 221 221 222 223 224 224 227 231 232 232 236 242 249 257 262 269 273 267 261 266 281 276 269 271 272 263 252 248 248 247 245 243 242 237 237 241 236 230 231 235 231 222 215 210 208 209 209 211 213 212 211 210 208 205 204 203 203 203 203 203 205 206 209 210 211 213 215 217 221 224 224 223 229 232 234 236 234 233 233 233 233 234
226 224 225 225 223 222 223 225 225 224 227 232 234 232 235 243 249 256 261 266 273 272 267 264 264 272 276 273 273 272 265 260 252 248 247 242 239 238 236 237 235 231 229 228 225 218 216 213 210 210 210 212 213 212 211 211 208 205 204 204 205 205 205 206 208 211 212 213 214 218 222 226 231 233 226 219 224 219 219 226 227 227 228 230 231 233
228 224 225 227 228 225 225 227 226 224 226 233 237 235 235 241 247 254 261 263 266 272 273 269 263 267 270 266 268 273 275 272 260 251 247 240 238 239 238 236 235 232 229 229 225 215 212 214 213 213 214 215 215 213 213 212 210 208 207 207 208 208 209 210 213 216 216 217 219 222 225 229 232 232 225 224 227 223 216 216 219 219 221 225 228 231
230 227 226 227 227 228 229 229 227 225 226 232 237 238 238 240 246 253 260 264 269 274 271 267 262 255 260 264 267 269 268 267 262 256 250 242 238 239 239 236 233 232 230 229 228 223 214 211 213 214 216 217 216 216 217 217 214 213 213 212 212 212 213 215 217 219 219 220 222 224 227 230 233 232 229 227 227 225 220 215 216 216 218 224 229 231
235 235 234 233 231 233 235 234 231 230 229 232 236 238 240 240 244 251 256 265 274 268 258 262 259 244 259 264 262 260 259 260 261 261 255 245 240 241 241 239 234 231 230 229 227 226 220 214 210 208 212 214 214 217 219 221 220 219 218 217 217 216 217 218 220 222 222 223 225 226 227 229 231 232 232 232 231 229 226 219 216 217 218 223 229 230
238 242 240 238 237 240 243 240 235 233 233 235 237 239 242 245 247 252 257 265 276 262 252 257 256 250 265 264 257 253 253 257 262 265 262 250 242 241 242 242 238 232 229 227 225 224 221 217 212 205 205 206 208 213 215 218 221 221 221 220 219 219 220 221 224 225 226 227 228 228 228 230 231 233 233 233 233 234 234 228 222 221 221 223 227 227
235 240 240 239 240 241 243 242 239 236 234 234 238 239 242 248 250 253 257 255 255 257 254 258 257 250 248 253 255 256 255 258 262 263 264 258 248 244 243 244 242 236 232 229 225 223 221 219 215 210 206 202 204 208 209 211 216 219 220 221 220 219 220 222 225 227 228 229 230 229 229 230 231 234 236 236 235 237 238 237 230 225 224 224 227 226
231 234 237 240 242 237 232 234 235 235 232 227 230 230 227 235 241 238 243 237 239 254 259 261 259 246 247 252 256 257 257 258 260 261 263 264 258 251 247 247 247 243 236 232 228 223 221 220 220 216 209 204 205 207 207 208 211 216 219 221 222 222 223 224 225 227 229 230 231 231 230 230 231 234 238 239 240 241 241 240 235 227 224 224 226 227
228 234 235 235 239 237 230 225 223 226 227 223 222 218 207 187 174 217 225 246 256 257 247 246 250 250 256 262 262 259 258 258 259 260 261 263 261 255 250 251 253 251 244 238 232 226 224 222 222 221 215 210 211 210 210 210 212 216 218 220 222 223 225 227 228 229 231 232 232 232 231 230 231 234 238 240 243 246 247 246 241 231 222 220 223 224
218 230 231 228 230 231 229 227 224 224 226 224 222 218 214 211 199 196 205 200 240 257 217 213 223 246 254 259 264 263 260 258 258 257 256 259 258 254 254 256 258 257 251 246 239 232 228 226 225 225 221 217 216 214 213 215 217 219 221 222 223 224 225 226 228 230 232 233 233 232 232 231 232 234 237 240 242 245 249 251 249 240 225 218 218 218
216 228 233 227 227 230 229 228 228 227 229 227 221 220 224 223 216 213 242 239 259 321 225 203 218 246 255 261 268 270 264 257 254 254 252 252 253 252 254 258 261 260 256 251 246 240 234 229 228 227 225 223 221 219 218 217 220 224 226 227 227 227 227 228 230 231 232 233 234 234 233 233 232 233 236 239 241 244 248 250 252 248 234 220 215 214
213 231 238 229 225 230 230 229 226 221 222 219 214 219 225 227 224 229 259 269 272 287 259 227 235 251 261 268 267 263 261 257 252 250 247 247 250 250 251 256 259 260 259 255 250 246 241 235 231 229 229 228 225 223 222 219 221 226 228 231 233 232 230 231 232 233 233 233 234 235 235 234 234 234 235 238 242 245 247 249 250 248 239 225 215 213
218 235 241 233 229 232 231 230 229 226 222 214 213 221 224 228 232 231 244 274 260 255 262 240 244 254 255 260 262 255 253 254 252 249 246 245 246 245 246 252 256 256 259 258 254 250 247 242 237 233 231 231 230 228 225 223 223 225 227 230 234 236 237 237 235 235 236 235 235 236 236 236 236 235 235 237 241 244 246 247 247 245 238 228 219 214
226 239 246 238 237 237 229 224 222 225 227 224 225 228 221 213 216 215 218 241 227 236 281 254 251 254 247 242 246 249 247 250 251 248 246 245 244 241 239 243 249 251 257 262 259 253 248 244 241 237 233 232 233 231 229 227 227 228 229 229 230 232 237 240 240 239 238 237 237 237 238 238 238 237 236 236 239 242 245 245 244 241 237 229 222 217
225 236 246 243 242 239 225 215 212 215 222 225 232 236 231 226 219 211 211 213 209 216 260 272 263 255 252 249 245 243 245 247 246 243 244 246 246 244 241 242 245 247 255 262 263 258 251 245 243 240 237 236 235 235 233 231 231 230 230 230 228 227 229 232 235 237 237 237 237 237 237 238 238 238 237 236 238 240 243 245 242 239 235 229 223 218
226 230 240 243 239 227 215 212 214 216 216 218 222 226 227 227 225 219 218 217 218 215 194 247 266 258 260 260 252 246 243 238 237 239 243 246 249 247 243 244 246 248 255 261 263 263 257 249 245 242 240 238 238 237 236 234 234 233 231 230 228 226 226 228 229 231 233 233 235 236 237 238 238 238 238 237 237 238 240 241 239 236 233 228 223 219
225 227 232 237 232 223 219 223 231 231 225 221 221 222 223 222 216 209 221 220 219 223 219 204 257 264 261 263 264 257 248 242 239 238 239 242 247 247 242 240 244 250 256 258 258 260 259 253 248 244 240 238 239 238 237 237 235 234 233 230 227 226 225 225 225 227 229 230 232 235 236 238 240 240 239 238 236 236 237 237 236 234 230 225 223 220
221 223 227 234 233 228 230 236 240 242 239 233 229 228 226 224 218 211 218 221 215 222 233 232 260 265 264 264 264 263 263 257 246 238 236 237 239 241 238 238 244 251 254 253 254 261 264 260 252 247 241 237 238 240 238 239 237 235 234 231 228 227 224 222 223 225 228 229 231 234 236 239 242 241 240 238 235 234 234 234 234 232 227 223 221 220
217 220 225 234 239 238 237 237 236 237 236 232 230 231 227 225 224 224 230 233 223 219 226 229 251 258 262 266 261 261 263 258 253 246 240 240 238 235 237 242 251 255 253 250 254 263 270 268 259 250 243 236 236 238 238 238 238 237 235 233 230 226 223 223 222 223 227 228 230 232 235 240 243 243 242 238 235 233 232 232 232 229 225 222 220 220
209 211 219 228 240 239 237 238 236 232 229 228 229 230 229 229 228 228 232 235 236 229 223 221 239 250 256 260 259 261 257 251 259 254 239 241 241 236 239 246 252 256 255 254 258 263 268 270 262 247 239 233 230 232 234 235 237 237 235 233 229 224 222 223 223 224 227 229 230 231 233 238 241 242 242 241 238 234 230 230 230 226 223 219 219 219
221 218 218 219 222 222 226 232 228 226 228 230 231 232 231 230 227 226 228 228 232 232 225 224 236 249 254 257 258 258 256 260 268 257 245 249 248 240 240 243 247 254 259 260 260 261 263 269 263 244 234 230 226 226 229 230 233 235 233 231 228 225 223 224 225 227 228 230 231 232 233 237 240 241 242 242 241 237 231 228 227 224 219 217 217 219
263 250 244 246 246 248 247 224 202 218 230 229 230 232 232 232 229 227 227 226 227 229 229 233 239 247 250 253 256 254 256 266 266 255 254 256 251 249 247 245 249 255 259 259 258 259 263 268 264 244 232 229 227 226 226 227 228 230 230 229 228 227 227 226 227 229 230 231 232 232 233 236 240 242 243 242 243 241 236 229 226 223 218 215 216 218
288 276 263 259 253 255 258 241 223 237 250 241 230 228 229 232 232 228 226 228 229 227 233 239 240 242 244 248 254 256 259 264 260 259 264 255 249 256 258 256 256 254 254 253 253 257 262 266 265 249 233 229 229 228 228 228 228 229 229 229 230 231 231 230 230 230 230 231 231 232 233 235 238 242 243 243 242 242 240 233 226 222 218 215 216 218
299 295 278 271 261 254 263 260 244 247 257 253 238 229 227 229 232 232 231 231 230 228 236 242 241 241 244 246 250 253 254 253 251 258 263 252 255 265 267 266 261 253 252 253 250 251 255 261 266 258 242 231 227 228 230 230 231 231 231 232 232 233 232 230 231 231 232 233 233 233 234 235 236 238 240 242 240 240 240 235 228 223 219 217 217 218
297 294 281 288 283 270 267 270 255 251 255 254 246 238 232 229 233 236 237 237 236 236 240 245 246 246 246 245 246 250 253 253 255 260 262 257 263 272 272 266 256 250 255 258 254 251 251 259 266 262 250 237 229 226 227 229 232 231 230 230 229 228 227 228 230 232 234 235 234 236 237 236 236 236 237 240 240 238 238 236 231 225 220 218 217 217
286 288 285 296 298 286 270 264 256 248 251 253 248 243 239 235 236 239 240 240 239 240 242 245 246 247 247 248 250 253 257 259 261 265 267 264 264 268 270 265 256 252 255 258 257 251 248 252 254 250 245 237 230 225 223 225 230 231 230 229 227 225 224 226 229 232 235 237 237 237 238 239 238 236 236 238 239 237 236 235 232 228 223 220 219 218
282 287 289 300 307 296 278 270 259 251 254 256 251 246 244 243 242 243 244 242 241 241 243 244 244 245 246 249 252 254 256 259 262 265 269 268 266 264 261 258 257 255 251 251 253 250 246 245 242 238 234 230 228 227 224 224 228 232 233 232 230 230 229 228 230 233 236 239 240 239 238 239 239 236 234 235 237 237 235 233 232 230 226 223 221 221
281 285 286 297 308 297 281 276 273 271 268 258 251 250 251 249 247 246 245 245 245 244 243 242 245 248 249 250 251 253 254 258 261 264 266 268 268 264 255 249 252 251 245 245 248 245 241 239 238 234 228 225 227 228 227 228 230 231 232 232 233 235 236 234 233 235 238 240 241 241 240 239 238 236 234 233 234 235 234 232 231 229 228 226 224 224
280 281 281 286 295 293 286 287 291 287 258 246 247 253 253 250 248 248 247 245 245 246 248 249 251 254 254 253 253 254 254 256 259 263 265 265 267 266 257 249 248 246 241 244 251 246 237 236 239 235 227 225 230 233 232 235 237 236 235 234 235 238 241 242 240 240 242 243 244 244 243 240 238 236 234 234 233 233 233 232 231 229 228 227 226 226
272 272 272 274 278 286 290 294 299 250 237 240 244 248 249 250 252 253 252 249 245 246 251 255 255 254 254 255 257 258 256 256 259 262 266 266 266 266 259 252 249 248 245 249 256 250 237 234 238 240 234 231 232 234 235 238 240 239 236 234 233 235 240 243 243 243 244 246 246 245 243 240 238 236 234 234 233 232 232 232 231 229 228 227 227 228
259 259 260 263 266 277 281 272 252 254 256 256 253 249 250 252 253 253 254 252 247 244 248 254 257 258 257 256 258 259 257 257 259 261 263 265 264 263 260 255 252 250 250 252 256 252 242 237 238 240 240 235 231 233 237 238 236 235 234 233 232 232 234 238 242 243 245 246 245 244 243 242 240 238 236 234 234 233 231 231 230 229 228 227 228 229
250 244 239 246 250 250 255 258 268 281 280 265 250 245 238 241 245 248 251 251 248 244 246 249 252 256 258 257 258 261 261 259 259 259 260 263 264 263 261 257 254 253 253 252 253 255 248 236 233 235 236 233 233 236 239 238 235 235 237 237 236 234 234 237 242 245 246 245 245 245 245 244 242 240 237 235 235 235 233 231 230 230 228 228 228 229
240 235 230 235 239 240 247 260 274 292 282 243 232 225 215 231 238 243 250 252 249 246 245 245 247 249 252 254 256 259 261 258 256 257 258 260 262 263 262 260 258 257 255 252 253 254 246 230 226 227 227 229 234 240 242 242 240 237 237 240 240 239 239 240 242 245 245 244 243 245 247 245 244 246 245 244 243 242 238 234 231 230 230 229 229 230
225 225 224 227 231 229 228 232 238 249 249 236 223 228 263 262 243 241 252 254 248 245 245 245 245 247 247 248 251 255 257 256 255 255 257 259 260 259 259 260 259 259 255 252 253 250 239 228 225 222 221 224 230 237 242 245 243 239 238 240 239 238 240 240 241 243 244 240 238 244 252 253 252 252 255 257 255 252 247 241 235 232 231 231 231 231
218 215 215 221 225 224 223 228 240 249 249 245 243 252 280 286 250 230 237 248 245 245 245 243 243 247 246 245 247 250 252 254 256 256 256 257 256 252 252 259 261 257 250 248 248 241 229 225 226 227 227 228 229 234 240 244 245 242 240 238 236 236 239 239 239 241 241 239 242 249 255 259 260 257 256 257 259 259 254 246 239 234 232 232 232 232
218 215 216 220 223 222 221 227 242 251 247 244 251 263 279 282 238 211 220 240 243 243 244 240 239 242 242 238 239 243 246 250 253 254 253 254 251 247 246 254 259 253 244 240 236 228 221 220 224 229 232 230 228 230 234 240 244 243 240 238 239 241 240 237 236 238 240 243 248 250 251 257 262 262 259 254 254 257 257 251 244 238 234 232 232 232
220 216 217 220 222 223 223 224 238 250 246 242 252 263 272 268 229 216 225 235 236 237 240 237 234 232 228 222 224 230 237 242 244 246 248 246 243 241 241 245 248 245 240 235 226 219 218 220 224 228 229 228 227 226 228 233 236 237 238 239 241 242 237 232 232 237 241 244 246 247 249 254 256 257 255 247 242 245 253 257 253 245 239 235 233 232
231 216 216 217 217 220 221 219 225 240 235 235 248 260 264 259 235 222 222 225 225 229 235 235 231 226 221 216 216 222 231 236 237 238 238 234 231 230 229 231 234 234 235 233 226 222 223 226 230 232 230 228 228 227 227 229 231 231 232 234 235 233 229 228 233 237 239 242 244 247 250 252 253 254 252 244 238 239 246 254 257 255 249 243 237 234
246 229 222 218 214 213 215 215 215 222 227 231 245 264 270 259 234 219 216 215 213 214 220 224 221 217 215 212 211 215 220 223 225 227 225 220 217 218 218 219 222 225 227 229 227 226 228 230 233 235 233 230 229 229 228 230 230 230 230 230 228 226 226 229 234 238 239 241 244 247 249 251 254 256 253 247 243 243 244 243 246 252 255 252 245 239
248 231 227 222 215 213 219 222 218 219 227 234 242 261 272 257 226 211 206 199 189 186 192 198 197 198 202 202 204 208 209 208 210 212 211 209 208 208 210 211 213 215 218 221 223 224 226 229 231 232 232 232 233 233 233 233 231 231 232 231 231 231 233 236 239 242 245 247 248 250 251 252 254 256 256 254 251 250 248 243 241 243 247 251 252 249
247 236 238 232 220 218 226 223 215 216 227 235 238 251 265 252 222 206 201 190 174 166 169 174 177 180 185 188 190 196 198 196 196 197 197 200 201 201 203 204 205 208 212 215 219 222 224 227 230 231 233 234 235 236 236 235 234 236 237 238 239 241 243 245 246 248 251 252 253 253 253 252 253 254 255 256 256 255 253 249 246 245 243 245 248 249
249 247 253 244 229 225 226 216 210 213 223 232 238 242 248 257 243 201 197 193 174 158 154 157 162 167 173 176 174 176 181 184 186 190 194 197 200 203 206 207 208 210 211 214 219 222 225 229 233 236 239 241 242 243 243 242 242 243 243 244 246 249 250 251 252 252 253 253 253 253 252 252 251 251 251 252 253 254 253 253 251 249 247 246 245 245
261 256 255 245 235 232 223 214 213 214 219 229 236 236 236 270 316 197 180 179 175 163 156 155 159 162 168 170 166 163 171 175 178 186 192 194 198 202 205 209 213 215 217 220 223 226 229 232 234 238 240 243 245 247 250 251 252 253 253 252 252 253 254 254 255 255 255 253 251 250 250 250 250 250 251 251 252 252 253 254 253 253 252 252 252 252
276 258 246 240 241 237 219 213 217 219 222 229 233 230 227 250 320 193 170 161 154 163 163 158 159 162 165 169 169 165 163 169 174 179 184 188 192 196 200 207 214 219 224 229 231 234 239 241 243 245 246 246 247 248 249 252 253 255 257 257 257 258 258 258 257 257 258 257 255 253 252 252 252 253 253 254 255 255 255 256 256 256 256 255 256 259
280 252 236 237 246 238 218 215 218 222 226 230 230 226 223 229 280 13 160 153 134 148 162 153 152 156 158 163 169 166 160 161 168 171 175 179 184 189 195 202 209 216 223 229 234 238 242 246 249 252 254 254 255 255 254 255 255 254 255 254 254 254 255 256 257 258 258 258 258 258 257 256 256 256 256 256 256 256 256 256 257 257 257 256 256 257
282 252 235 238 242 231 217 217 222 225 229 233 232 227 223 224 241 350 69 130 126 136 147 136 133 140 144 151 160 163 160 155 146 150 166 174 174 183 193 199 208 218 225 233 241 245 247 248 248 250 253 254 256 258 259 259 259 259 258 256 255 253 252 252 253 253 254 254 255 255 256 257 258 259 259 259 259 258 257 256 255 255 256 256 255 254
Height
3118 3118 3114 3112 3114 3119 3122 3125 3128 3131 3134 3136 3138 3138 3139 3139 3138 3140 3143 3144 3146 3146 3144 3144 3143 3142 3142 3142 3143 3145 3146 3147 3149 3150 3152 3153 3154 3156 3157 3158 3159 3161 3162 3163 3164 3165 3166 3168 3170 3172 3174 3176 3177 3178 3179 3180 3182 3183 3185 3186 3188 3190 3191 3192 3193 3194 3196 3197 3199 3200 3201 3203 3204 3205 3206 3207 3208 3209 3210 3210 3211 3212 3213 3214 3215 3216
3116 3110 3106 3110 3116 3120 3123 3126 3129 3131 3133 3135 3136 3136 3137 3137 3135 3137 3141 3142 3145 3144 3142 3143 3142 3140 3141 3141 3142 3143 3143 3144 3145 3148 3150 3151 3152 3153 3155 3156 3158 3160 3161 3161 3162 3163 3164 3166 3168 3170 3172 3173 3175 3176 3177 3178 3180 3182 3184 3185 3187 3188 3190 3191 3192 3193 3195 3196 3198 3199 3201 3202 3204 3204 3206 3207 3207 3208 3208 3209 3210 3211 3212 3213 3214 3215
3109 3102 3104 3112 3117 3120 3123 3125 3127 3128 3131 3132 3133 3134 3134 3134 3134 3136 3139 3141 3143 3142 3141 3141 3140 3139 3139 3139 3139 3140 3140 3141 3144 3145 3147 3149 3150 3151 3153 3154 3156 3158 3158 3158 3159 3160 3162 3163 3165 3167 3169 3171 3173 3175 3176 3178 3179 3180 3182 3184 3185 3187 3188 3190 3191 3192 3194 3196 3197 3199 3200 3201 3202 3203 3204 3205 3206 3206 3207 3208 3209 3210 3211 3212 3213 3214
3103 3100 3105 3112 3116 3118 3120 3122 3124 3126 3128 3129 3130 3131 3130 3131 3134 3134 3137 3139 3140 3140 3139 3139 3138 3137 3137 3137 3136 3137 3138 3140 3142 3143 3145 3147 3148 3150 3151 3152 3154 3156 3156 3157 3157 3158 3160 3162 3163 3164 3166 3169 3171 3173 3175 3176 3177 3179 3181 3182 3184 3186 3187 3188 3190 3191 3193 3195 3196 3197 3198 3199 3200 3201 3202 3203 3203 3204 3205 3206 3207 3209 3210 3211 3212 3214
3100 3101 3105 3110 3113 3116 3118 3119 3121 3123 3124 3125 3127 3127 3126 3130 3133 3133 3135 3137 3138 3138 3138 3138 3136 3134 3134 3134 3133 3134 3135 3137 3138 3140 3142 3143 3145 3148 3149 3150 3152 3154 3155 3156 3156 3156 3157 3159 3160 3162 3165 3167 3169 3171 3172 3174 3176 3178 3180 3182 3183 3185 3186 3187 3189 3190 3192 3193 3194 3195 3196 3197 3198 3199 3200 3201 3202 3203 3204 3205 3207 3208 3209 3210 3211 3213
3100 3102 3105 3107 3110 3113 3115 3116 3117 3119 3121 3122 3122 3122 3125 3129 3132 3133 3135 3136 3136 3135 3136 3138 3136 3131 3131 3131 3131 3132 3132 3133 3135 3136 3138 3140 3142 3145 3145 3147 3149 3151 3153 3154 3155 3156 3156 3157 3159 3161 3163 3165 3167 3169 3171 3173 3175 3177 3179 3181 3182 3183 3185 3186 3188 3189 3190 3191 3192 3193 3194 3195 3196 3198 3199 3201 3202 3202 3203 3204 3206 3207 3207 3209 3210 3212
3097 3102 3104 3106 3108 3110 3112 3112 3113 3117 3120 3118 3116 3121 3126 3128 3131 3132 3134 3135 3135 3133 3134 3136 3135 3130 3128 3128 3129 3130 3129 3130 3132 3132 3134 3137 3139 3141 3142 3144 3147 3149 3150 3152 3153 3154 3155 3156 3158 3159 3161 3163 3165 3168 3170 3172 3174 3175 3177 3179 3180 3182 3183 3184 3186 3187 3188 3189 3191 3192 3193 3194 3196 3197 3199 3200 3201 3202 3202 3203 3204 3205 3206 3207 3209 3210
3093 3100 3102 3103 3105 3107 3107 3107 3110 3115 3117 3112 3113 3121 3125 3127 3130 3130 3132 3134 3133 3132 3131 3131 3133 3130 3124 3123 3126 3128 3127 3128 3129 3129 3131 3133 3135 3137 3139 3142 3144 3146 3148 3150 3151 3152 3153 3154 3156 3157 3159 3161 3164 3167 3169 3170 3172 3174 3175 3177 3178 3180 3181 3183 3184 3185 3187 3188 3189 3191 3192 3193 3195 3196 3198 3199 3200 3200 3201 3202 3202 3204 3205 3206 3207 3209
3091 3096 3097 3099 3101 3101 3101 3103 3108 3112 3112 3110 3115 3121 3123 3126 3128 3129 3131 3131 3131 3131 3126 3124 3130 3128 3119 3119 3124 3125 3125 3125 3125 3126 3128 3130 3132 3134 3136 3139 3141 3144 3145 3147 3149 3150 3151 3152 3154 3156 3158 3160 3163 3165 3167 3169 3171 3173 3174 3176 3177 3178 3179 3181 3182 3183 3185 3186 3188 3189 3190 3192 3193 3195 3196 3197 3198 3198 3199 3200 3201 3202 3203 3204 3206 3207
3091 3093 3096 3098 3098 3097 3099 3103 3106 3108 3109 3111 3116 3119 3122 3125 3126 3128 3129 3128 3131 3127 3119 3119 3125 3124 3116 3115 3121 3121 3120 3121 3122 3124 3126 3127 3130 3131 3133 3136 3138 3141 3143 3145 3147 3149 3150 3151 3152 3154 3156 3159 3161 3163 3165 3167 3169 3171 3172 3174 3175 3176 3178 3179 3180 3181 3183 3184 3186 3187 3188 3190 3192 3193 3195 3195 3196 3197 3197 3198 3200 3201 3202 3203 3205 3206
3090 3092 3095 3095 3095 3097 3100 3102 3104 3106 3108 3112 3116 3118 3121 3122 3124 3126 3125 3128 3129 3117 3111 3117 3121 3122 3115 3108 3113 3116 3115 3119 3121 3122 3124 3125 3127 3129 3130 3133 3135 3138 3140 3142 3144 3146 3148 3150 3151 3153 3154 3156 3158 3160 3162 3164 3166 3168 3169 3171 3172 3174 3176 3177 3178 3179 3181 3182 3183 3185 3187 3189 3190 3192 3192 3193 3194 3195 3196 3197 3198 3200 3201 3202 3203 3205
3089 3091 3091 3091 3093 3096 3099 3100 3102 3105 3107 3110 3113 3115 3119 3120 3122 3123 3123 3127 3122 3107 3106 3114 3118 3121 3110 3100 3106 3112 3113 3118 3119 3120 3122 3122 3124 3125 3127 3130 3132 3135 3137 3139 3141 3144 3146 3147 3148 3150 3151 3153 3155 3157 3158 3161 3163 3165 3166 3168 3170 3171 3173 3174 3175 3177 3178 3180 3181 3183 3185 3187 3189 3190 3190 3192 3193 3194 3195 3196 3197 3198 3199 3200 3202 3203
3085 3086 3087 3089 3092 3093 3095 3096 3099 3101 3104 3107 3109 3112 3116 3118 3119 3119 3118 3118 3111 3103 3107 3113 3115 3113 3100 3095 3104 3108 3111 3115 3116 3118 3120 3120 3121 3122 3125 3127 3129 3131 3134 3136 3138 3140 3143 3144 3145 3147 3149 3151 3152 3153 3155 3158 3160 3162 3164 3165 3167 3169 3170 3171 3173 3174 3176 3177 3178 3181 3183 3185 3186 3187 3189 3190 3191 3192 3193 3194 3195 3196 3198 3199 3200 3202
3082 3084 3085 3086 3087 3088 3090 3091 3093 3095 3098 3101 3103 3106 3109 3112 3115 3115 3113 3110 3105 3104 3106 3111 3114 3105 3093 3095 3101 3104 3109 3112 3113 3116 3117 3118 3120 3120 3122 3124 3126 3128 3131 3133 3135 3137 3139 3140 3142 3145 3147 3149 3149 3151 3153 3155 3157 3159 3161 3163 3164 3166 3168 3169 3170 3172 3173 3174 3176 3178 3180 3182 3184 3185 3186 3188 3190 3191 3192 3193 3194 3195 3196 3197 3198 3200
3078 3078 3077 3078 3079 3081 3084 3086 3089 3092 3095 3097 3100 3104 3105 3104 3106 3107 3107 3106 3104 3104 3105 3108 3108 3098 3091 3094 3097 3101 3107 3109 3111 3113 3115 3117 3117 3118 3119 3120 3122 3124 3127 3129 3131 3133 3135 3137 3140 3142 3144 3146 3148 3149 3151 3153 3155 3156 3158 3160 3161 3163 3165 3166 3168 3169 3170 3172 3174 3176 3178 3180 3181 3182 3184 3186 3187 3189 3190 3191 3192 3193 3194 3195 3197 3198
3074 3070 3069 3073 3075 3077 3081 3084 3088 3092 3094 3095 3099 3102 3098 3094 3098 3103 3103 3103 3104 3104 3103 3103 3099 3092 3091 3093 3096 3100 3104 3105 3109 3110 3112 3114 3115 3116 3117 3117 3119 3120 3122 3125 3127 3129 3131 3134 3137 3139 3141 3144 3145 3147 3149 3150 3152 3153 3155 3157 3159 3161 3162 3163 3165 3166 3168 3170 3172 3174 3175 3177 3179 3180 3182 3183 3185 3187 3188 3189 3191 3192 3193 3194 3195 3196
3069 3066 3066 3072 3074 3075 3079 3082 3086 3088 3089 3092 3094 3093 3089 3091 3099 3103 3102 3102 3104 3103 3100 3097 3094 3092 3092 3092 3094 3098 3100 3102 3106 3107 3109 3112 3113 3114 3115 3115 3116 3117 3118 3121 3123 3125 3128 3131 3134 3136 3138 3140 3142 3144 3146 3148 3150 3151 3153 3155 3157 3159 3160 3161 3162 3163 3165 3167 3169 3170 3172 3174 3176 3178 3179 3181 3183 3185 3186 3188 3189 3190 3191 3192 3193 3194
3065 3063 3064 3069 3071 3073 3077 3080 3083 3085 3086 3088 3088 3086 3089 3096 3101 3102 3102 3101 3102 3101 3096 3093 3092 3092 3091 3089 3090 3094 3096 3098 3101 3104 3107 3109 3110 3112 3112 3113 3114 3114 3116 3117 3119 3122 3125 3128 3130 3132 3135 3137 3139 3142 3143 3146 3148 3149 3151 3153 3155 3156 3158 3159 3160 3161 3163 3164 3166 3167 3169 3171 3173 3175 3177 3179 3181 3183 3184 3185 3187 3188 3189 3190 3191 3192
3063 3063 3062 3065 3068 3071 3075 3078 3080 3082 3083 3085 3085 3086 3090 3094 3094 3097 3099 3099 3100 3100 3094 3089 3088 3086 3085 3085 3088 3091 3093 3095 3098 3100 3103 3105 3107 3109 3110 3111 3112 3112 3114 3114 3115 3118 3120 3123 3126 3129 3132 3134 3136 3139 3141 3143 3145 3147 3149 3151 3153 3154 3156 3157 3158 3159 3161 3162 3163 3165 3166 3169 3171 3173 3175 3177 3179 3180 3181 3183 3185 3186 3188 3189 3190 3190
3062 3062 3061 3061 3066 3069 3071 3072 3074 3076 3079 3082 3084 3085 3086 3088 3088 3090 3093 3093 3096 3097 3093 3089 3084 3077 3075 3080 3086 3090 3091 3094 3096 3097 3099 3102 3104 3106 3107 3109 3110 3111 3111 3111 3112 3113 3116 3119 3122 3125 3128 3131 3133 3136 3138 3140 3142 3143 3146 3148 3150 3152 3154 3155 3156 3157 3158 3159 3161 3162 3164 3166 3167 3169 3172 3174 3175 3177 3178 3180 3182 3184 3185 3186 3187 3189
3060 3060 3058 3059 3064 3064 3064 3066 3068 3071 3074 3076 3078 3079 3081 3084 3085 3087 3088 3089 3091 3091 3090 3090 3081 3070 3071 3078 3082 3086 3090 3092 3094 3095 3097 3099 3100 3102 3104 3106 3108 3109 3109 3109 3109 3110 3112 3115 3118 3122 3125 3128 3130 3133 3135 3137 3138 3141 3143 3145 3147 3149 3151 3152 3153 3155 3156 3157 3159 3160 3161 3163 3164 3166 3168 3170 3172 3173 3175 3177 3179 3181 3183 3184 3185 3186
3055 3055 3055 3057 3059 3059 3060 3064 3067 3069 3070 3071 3072 3073 3076 3080 3082 3085 3085 3083 3085 3085 3084 3086 3077 3066 3070 3078 3079 3084 3087 3088 3091 3092 3094 3096 3097 3099 3101 3103 3105 3106 3106 3107 3107 3107 3109 3112 3115 3118 3121 3124 3126 3128 3131 3133 3135 3137 3139 3142 3144 3146 3148 3149 3151 3153 3154 3156 3157 3158 3159 3160 3162 3163 3165 3166 3168 3170 3172 3174 3176 3178 3180 3181 3182 3184
3049 3051 3053 3053 3054 3056 3060 3063 3065 3066 3067 3069 3069 3069 3073 3076 3077 3080 3079 3077 3081 3080 3080 3084 3076 3064 3068 3076 3078 3082 3084 3086 3088 3089 3090 3093 3094 3096 3097 3099 3102 3103 3104 3104 3105 3105 3106 3108 3112 3115 3118 3121 3122 3125 3127 3129 3132 3134 3136 3139 3141 3143 3145 3147 3149 3150 3152 3154 3155 3156 3158 3158 3159 3160 3161 3163 3164 3166 3169 3171 3173 3176 3177 3179 3180 3182
3046 3049 3050 3050 3052 3056 3059 3061 3063 3064 3065 3064 3064 3066 3069 3070 3072 3074 3074 3075 3078 3077 3078 3082 3073 3062 3067 3074 3076 3080 3082 3084 3086 3086 3088 3090 3091 3093 3095 3097 3099 3099 3100 3101 3102 3103 3103 3105 3109 3112 3114 3117 3119 3121 3123 3125 3128 3130 3132 3135 3137 3140 3142 3144 3146 3148 3149 3151 3153 3154 3156 3156 3157 3158 3158 3160 3161 3163 3166 3168 3171 3173 3174 3176 3178 3179
3045 3046 3047 3049 3051 3054 3056 3057 3058 3059 3060 3059 3060 3063 3064 3066 3070 3072 3073 3074 3073 3071 3075 3076 3066 3062 3068 3072 3074 3078 3080 3082 3084 3085 3086 3087 3089 3091 3092 3094 3096 3096 3097 3098 3099 3100 3100 3102 3105 3108 3110 3113 3115 3117 3119 3122 3125 3127 3129 3131 3134 3137 3139 3141 3143 3145 3147 3149 3150 3152 3153 3153 3154 3155 3156 3157 3158 3160 3163 3165 3168 3170 3171 3173 3175 3177
3042 3043 3045 3046 3048 3050 3050 3051 3051 3054 3056 3056 3057 3059 3060 3063 3066 3067 3069 3069 3065 3065 3069 3067 3060 3062 3068 3070 3073 3076 3077 3079 3082 3083 3084 3085 3087 3088 3090 3092 3093 3094 3095 3096 3096 3097 3098 3098 3102 3105 3107 3109 3112 3114 3116 3118 3121 3123 3126 3128 3131 3134 3136 3138 3140 3142 3144 3146 3147 3149 3150 3151 3151 3152 3153 3155 3156 3158 3160 3162 3164 3167 3168 3170 3172 3174
3040 3041 3043 3044 3045 3046 3046 3046 3048 3050 3051 3051 3053 3055 3057 3059 3061 3063 3062 3058 3057 3063 3063 3059 3060 3063 3065 3068 3071 3074 3076 3078 3080 3081 3082 3083 3084 3086 3087 3089 3090 3090 3092 3093 3093 3094 3095 3096 3098 3101 3103 3106 3109 3111 3113 3116 3118 3120 3123 3125 3127 3130 3133 3135 3137 3139 3141 3143 3144 3146 3147 3148 3149 3150 3151 3153 3154 3156 3157 3159 3161 3163 3165 3167 3169 3171
3038 3040 3041 3042 3042 3043 3043 3044 3046 3047 3046 3048 3050 3051 3052 3055 3056 3055 3051 3049 3055 3060 3054 3052 3059 3061 3062 3067 3070 3072 3075 3077 3078 3080 3080 3081 3083 3084 3085 3086 3087 3088 3089 3090 3091 3092 3093 3094 3095 3098 3100 3102 3105 3108 3110 3113 3115 3117 3120 3122 3124 3127 3129 3132 3134 3135 3137 3139 3141 3142 3144 3146 3147 3148 3149 3151 3152 3153 3155 3156 3158 3160 3162 3164 3166 3168
3037 3038 3039 3039 3039 3040 3041 3043 3044 3044 3043 3044 3045 3046 3047 3050 3049 3046 3044 3048 3053 3052 3047 3051 3057 3057 3061 3067 3069 3070 3074 3075 3076 3077 3078 3079 3081 3082 3083 3083 3084 3085 3086 3088 3089 3090 3091 3092 3093 3095 3097 3099 3101 3104 3107 3110 3112 3114 3116 3119 3121 3123 3126 3128 3130 3132 3134 3135 3137 3139 3141 3143 3144 3145 3146 3148 3149 3150 3152 3153 3155 3157 3159 3161 3163 3165
3036 3037 3037 3037 3036 3037 3040 3042 3042 3041 3040 3040 3040 3042 3043 3044 3043 3042 3044 3048 3049 3048 3048 3052 3054 3054 3059 3064 3066 3069 3071 3072 3073 3075 3076 3077 3078 3079 3080 3080 3081 3083 3084 3085 3086 3087 3088 3090 3091 3093 3094 3096 3099 3100 3103 3106 3108 3111 3113 3115 3117 3119 3122 3124 3126 3128 3130 3131 3133 3136 3138 3140 3141 3142 3143 3144 3145 3147 3149 3150 3152 3154 3156 3158 3160 3162
3035 3036 3036 3035 3034 3035 3037 3039 3039 3038 3036 3035 3035 3037 3039 3039 3039 3040 3043 3046 3046 3046 3049 3051 3049 3049 3055 3061 3064 3067 3067 3067 3069 3070 3072 3074 3075 3077 3078 3078 3079 3080 3081 3082 3083 3083 3085 3087 3089 3090 3091 3093 3096 3098 3100 3103 3105 3107 3110 3112 3113 3116 3118 3120 3122 3124 3126 3127 3130 3132 3134 3135 3137 3138 3139 3140 3142 3144 3145 3147 3148 3150 3152 3154 3156 3158
3033 3034 3035 3035 3033 3033 3035 3036 3035 3034 3033 3030 3030 3032 3035 3036 3037 3038 3041 3043 3042 3043 3046 3046 3041 3043 3052 3058 3061 3063 3063 3064 3065 3067 3069 3070 3072 3073 3075 3076 3077 3078 3078 3079 3080 3081 3083 3084 3086 3088 3089 3091 3093 3095 3097 3100 3102 3104 3106 3108 3110 3112 3114 3116 3118 3120 3122 3124 3126 3128 3130 3131 3132 3134 3136 3137 3138 3140 3142 3144 3145 3146 3148 3150 3152 3154
3032 3033 3033 3034 3032 3031 3034 3034 3032 3032 3030 3026 3026 3029 3031 3032 3034 3035 3036 3037 3039 3040 3040 3036 3034 3042 3051 3056 3057 3059 3060 3060 3061 3063 3065 3067 3068 3069 3071 3073 3074 3075 3076 3077 3077 3079 3080 3081 3083 3085 3087 3088 3090 3092 3095 3097 3099 3101 3103 3106 3108 3110 3111 3113 3115 3117 3118 3120 3122 3124 3126 3127 3128 3130 3131 3133 3134 3136 3138 3139 3141 3142 3144 3146 3148 3149
3030 3031 3032 3033 3032 3031 3032 3031 3031 3031 3026 3021 3023 3027 3027 3026 3028 3030 3030 3032 3035 3035 3033 3032 3037 3044 3049 3051 3054 3056 3057 3058 3058 3059 3061 3063 3065 3066 3067 3069 3071 3072 3073 3074 3074 3076 3077 3078 3080 3081 3084 3086 3087 3089 3091 3093 3095 3098 3101 3103 3105 3107 3108 3110 3112 3113 3115 3116 3118 3120 3122 3123 3124 3125 3127 3129 3131 3132 3133 3135 3136 3138 3140 3142 3144 3144
3027 3029 3031 3031 3031 3030 3030 3030 3029 3023 3017 3018 3023 3024 3022 3022 3024 3026 3025 3027 3029 3030 3031 3033 3037 3041 3045 3047 3051 3053 3054 3055 3055 3055 3057 3059 3061 3063 3064 3065 3067 3069 3070 3071 3072 3073 3074 3075 3077 3078 3081 3083 3084 3086 3088 3089 3091 3094 3096 3099 3101 3103 3105 3106 3108 3109 3111 3112 3114 3115 3117 3118 3119 3121 3123 3125 3126 3127 3129 3131 3132 3134 3136 3137 3139 3140
3024 3027 3028 3029 3029 3030 3029 3028 3024 3015 3012 3018 3021 3019 3019 3020 3022 3022 3019 3019 3024 3028 3030 3032 3035 3038 3042 3044 3047 3049 3050 3051 3051 3052 3053 3054 3057 3059 3060 3061 3063 3065 3066 3068 3069 3070 3071 3072 3074 3076 3078 3079 3081 3082 3084 3086 3088 3090 3092 3094 3097 3099 3101 3102 3103 3105 3107 3108 3110 3111 3113 3114 3116 3117 3119 3120 3121 3122 3124 3126 3128 3130 3132 3133 3134 3136
3020 3023 3025 3026 3026 3027 3027 3024 3020 3014 3013 3016 3017 3016 3017 3017 3018 3017 3014 3014 3021 3026 3027 3029 3033 3036 3039 3041 3043 3045 3046 3046 3047 3048 3049 3051 3053 3055 3056 3058 3060 3061 3063 3064 3065 3067 3069 3069 3070 3072 3074 3076 3077 3079 3081 3083 3085 3086 3088 3090 3092 3095 3097 3098 3099 3101 3103 3104 3106 3107 3109 3111 3112 3113 3115 3116 3117 3118 3120 3122 3124 3126 3127 3129 3130 3131
3015 3017 3021 3022 3023 3024 3025 3023 3020 3017 3014 3014 3014 3014 3014 3014 3014 3014 3010 3011 3018 3022 3022 3025 3029 3033 3036 3038 3039 3041 3041 3041 3042 3043 3046 3049 3050 3052 3053 3054 3056 3058 3059 3061 3062 3064 3066 3066 3067 3069 3070 3073 3075 3077 3079 3080 3081 3082 3084 3086 3088 3091 3093 3094 3095 3097 3099 3101 3103 3105 3106 3108 3109 3111 3112 3113 3114 3115 3116 3118 3120 3122 3123 3124 3125 3126
3010 3013 3017 3018 3018 3019 3021 3019 3017 3015 3012 3011 3012 3012 3013 3013 3012 3013 3011 3009 3013 3017 3018 3020 3025 3029 3033 3035 3036 3037 3037 3036 3037 3041 3044 3046 3048 3050 3050 3051 3053 3055 3056 3058 3059 3061 3063 3064 3065 3066 3067 3070 3072 3074 3075 3077 3078 3079 3080 3082 3084 3087 3089 3090 3092 3094 3097 3099 3101 3103 3104 3105 3106 3108 3109 3110 3111 3112 3113 3114 3116 3118 3119 3121 3121 3123
3006 3009 3012 3013 3012 3013 3015 3014 3013 3011 3009 3009 3010 3010 3012 3012 3011 3013 3010 3006 3008 3013 3015 3018 3022 3026 3029 3031 3033 3033 3033 3034 3036 3039 3041 3043 3045 3047 3048 3049 3050 3051 3053 3055 3056 3058 3060 3061 3062 3063 3065 3067 3069 3071 3072 3073 3075 3076 3077 3079 3081 3082 3084 3087 3090 3093 3096 3097 3098 3099 3101 3102 3103 3105 3106 3107 3108 3109 3110 3111 3112 3114 3115 3116 3117 3118
3002 3004 3006 3007 3007 3009 3010 3010 3009 3008 3007 3008 3008 3008 3010 3011 3010 3008 3005 3003 3007 3011 3013 3016 3020 3022 3024 3026 3028 3029 3031 3033 3035 3036 3038 3040 3042 3044 3046 3047 3047 3048 3050 3052 3053 3055 3057 3058 3059 3061 3062 3064 3066 3068 3069 3070 3072 3073 3075 3076 3077 3079 3082 3084 3088 3091 3093 3094 3095 3096 3097 3099 3100 3102 3103 3104 3104 3105 3106 3107 3108 3109 3110 3111 3112 3113
2999 3001 3002 3003 3004 3005 3006 3007 3007 3005 3004 3006 3007 3007 3008 3009 3006 3004 3002 3003 3006 3008 3011 3013 3016 3018 3021 3023 3025 3028 3030 3031 3032 3033 3035 3037 3039 3041 3043 3044 3045 3046 3048 3049 3050 3052 3053 3055 3056 3058 3060 3061 3063 3064 3066 3067 3069 3070 3071 3073 3075 3078 3080 3082 3084 3087 3089 3090 3091 3092 3094 3095 3096 3098 3099 3099 3100 3101 3102 3103 3104 3104 3105 3106 3106 3108
2997 2998 2998 2998 3000 3002 3002 3003 3002 3000 3001 3003 3005 3006 3006 3005 3003 3002 3002 3002 3003 3006 3009 3011 3012 3015 3018 3020 3022 3025 3027 3028 3030 3031 3032 3034 3036 3038 3040 3041 3043 3044 3045 3046 3048 3049 3051 3052 3053 3055 3057 3058 3060 3061 3063 3064 3065 3067 3068 3070 3073 3075 3076 3078 3080 3082 3083 3085 3087 3088 3090 3091 3092 3093 3094 3095 3096 3097 3098 3098 3100 3100 3100 3100 3101 3102
2994 2994 2994 2995 2996 2997 2996 2993 2993 2996 3000 3002 3004 3004 3003 3002 3000 3000 3000 3001 3002 3005 3007 3008 3009 3012 3014 3016 3019 3021 3023 3025 3027 3028 3029 3031 3033 3035 3036 3038 3039 3041 3043 3044 3045 3046 3048 3049 3050 3052 3053 3055 3056 3058 3059 3061 3062 3064 3065 3067 3068 3070 3071 3073 3075 3076 3078 3080 3081 3083 3085 3086 3087 3088 3090 3091 3092 3092 3093 3093 3094 3095 3095 3095 3096 3097
2990 2991 2992 2991 2991 2991 2990 2988 2990 2996 3000 3000 3002 3003 3002 3000 2999 2998 2999 3000 3001 3003 3005 3006 3008 3009 3011 3013 3016 3019 3021 3022 3023 3025 3027 3029 3030 3032 3033 3034 3036 3038 3040 3041 3042 3044 3045 3046 3047 3049 3050 3052 3053 3055 3056 3058 3059 3060 3062 3063 3064 3066 3067 3069 3070 3072 3073 3075 3077 3078 3079 3081 3082 3083 3084 3085 3086 3087 3088 3088 3088 3089 3089 3089 3090 3091
2987 2987 2988 2986 2986 2988 2988 2986 2990 2996 2997 2996 2999 3001 3001 2999 2998 2998 2998 3000 3000 3002 3004 3006 3006 3008 3010 3012 3014 3017 3020 3020 3021 3023 3024 3026 3027 3029 3030 3031 3033 3035 3037 3038 3040 3041 3042 3043 3045 3046 3047 3049 3050 3052 3053 3055 3056 3057 3059 3060 3061 3063 3064 3065 3066 3068 3069 3071 3072 3074 3074 3075 3076 3077 3078 3079 3080 3081 3082 3083 3083 3083 3083 3083 3083 3084
2983 2984 2983 2982 2983 2985 2984 2984 2987 2991 2993 2993 2996 2999 3001 2999 2998 2997 2998 2999 3001 3001 3003 3004 3006 3007 3007 3008 3011 3014 3017 3019 3020 3021 3021 3022 3024 3025 3027 3029 3031 3032 3034 3036 3038 3039 3040 3041 3042 3043 3044 3046 3047 3049 3051 3052 3053 3054 3056 3057 3058 3060 3061 3062 3063 3064 3066 3067 3068 3069 3069 3070 3071 3071 3072 3072 3073 3074 3075 3075 3076 3077 3077 3077 3077 3077
2980 2979 2978 2977 2978 2979 2980 2982 2985 2987 2988 2989 2992 2997 3000 2999 2998 2997 2997 2998 3000 3001 3001 3002 3004 3005 3004 3004 3006 3010 3013 3016 3018 3018 3019 3019 3020 3022 3024 3026 3028 3030 3031 3033 3035 3036 3038 3039 3040 3041 3042 3043 3045 3046 3047 3049 3050 3051 3052 3054 3055 3056 3057 3059 3059 3061 3062 3062 3063 3064 3064 3065 3065 3065 3065 3066 3066 3066 3066 3067 3068 3069 3070 3071 3071 3072
2976 2975 2974 2975 2975 2974 2976 2980 2982 2983 2984 2985 2988 2994 2998 2998 2998 2997 2996 2996 2999 3001 3002 3002 3004 3005 3003 3001 3002 3005 3010 3013 3016 3016 3017 3017 3018 3019 3021 3023 3025 3026 3028 3029 3031 3033 3034 3035 3037 3038 3039 3041 3042 3043 3044 3046 3047 3048 3049 3050 3051 3053 3054 3055 3055 3057 3057 3058 3058 3059 3059 3060 3060 3060 3060 3059 3059 3059 3059 3060 3060 3060 3062 3064 3065 3065
2973 2971 2972 2974 2973 2972 2974 2977 2979 2980 2981 2982 2985 2991 2994 2995 2996 2996 2996 2997 2999 3001 3002 3003 3003 3003 3001 3000 3000 3003 3007 3012 3015 3016 3016 3015 3016 3017 3018 3020 3021 3023 3024 3026 3027 3028 3029 3031 3032 3034 3035 3036 3038 3039 3040 3042 3043 3044 3045 3046 3047 3049 3050 3050 3051 3052 3052 3052 3053 3053 3053 3054 3054 3054 3053 3053 3053 3053 3052 3052 3052 3052 3053 3055 3056 3056
2969 2968 2969 2970 2970 2971 2973 2975 2977 2978 2979 2980 2983 2987 2990 2992 2995 2996 2997 2999 3000 3002 3003 3004 3002 2999 2998 2998 2999 3002 3007 3011 3014 3016 3016 3014 3014 3015 3016 3017 3018 3019 3020 3021 3023 3024 3026 3027 3028 3030 3031 3032 3033 3034 3036 3037 3038 3039 3040 3041 3042 3043 3044 3045 3046 3046 3047 3047 3047 3047 3047 3047 3047 3047 3047 3046 3046 3045 3044 3043 3043 3043 3044 3044 3045 3046